Asheville, NC

6:25 AM EDT on October 16, 2019 (GMT -0400)
Asheville Regional

Weather History for KAVL - May, 2019

Change the Weather History Date:

Saturday, May 4, 2019

  Actual Average Record
Temperature  
Mean Temperature 69 °F 60 °F  
Max Temperature 78 °F 72 °F 88 °F (1996)
Min Temperature 59 °F 48 °F 29 °F (1971)
Degree Days  
Heating Degree Days 0 5  
Month to date heating degree days 0 23  
Since 1 July heating degree days 3527 4095  
Cooling Degree Days 4 1  
Month to date cooling degree days 16 3  
Year to date cooling degree days 33 11  
Growing Degree Days 18 (Base 50)    
Moisture  
Dew Point 60 °F    
Average Humidity 74    
Maximum Humidity 97    
Minimum Humidity 50    
Precipitation  
Precipitation 0.34 in 0.11 in 1.94 in (1993)
Month to date precipitation 0.35 0.46  
Year to date precipitation 24.14 15.05  
Snow  
Snow 0.00 in 0.00 in 0.00 in ()
Month to date snowfall 0.0 0.0  
Since 1 July snowfall 11.4 9.9  
Snow Depth 0.00 in    
Sea Level Pressure  
Sea Level Pressure 29.91 in    
Wind  
Wind Speed 2 mph (NW)    
Max Wind Speed 17 mph    
Max Gust Speed 23 mph    
Visibility 6 miles    
Events Fog , Rain , Thunderstorm    
T = Trace of Precipitation, MM = Missing Value Source: NWS Daily Summary

Daily Weather History Graph

Daily Weather History Graph

Search for Another Location

Airport or City:

Astronomy

May. 04, 2019 Rise Set
Actual Time 6:35 AM EDT 8:18 PM EDT
Civil Twilight 6:08 AM EDT 8:46 PM EDT
Nautical Twilight 5:35 AM EDT 9:19 PM EDT
Astronomical Twilight 5:00 AM EDT 9:54 PM EDT
Moon 6:42 AM EDT (5/4) 8:09 PM EDT (5/4)
Length of Visible Light 14h 37m
Length of Day
13h 43m
Waning Crescent, 0% of the Moon is Illuminated
May 4
Waning Crescent
May 4
New
May 11
First Quarter
May 18
Full
May 26
Last Quarter

Hourly Weather History & Observations

Time (EDT) Temp. Dew Point Humidity Pressure Visibility Wind Dir Wind Speed Gust Speed Precip Events Conditions
12:54 AM 64.0 °F 61.0 °F 90% 29.94 in 10.0 mi Calm Calm - N/A   Clear
1:54 AM 62.1 °F 60.1 °F 93% 29.93 in 10.0 mi North 3.5 mph - N/A   Clear
2:54 AM 61.0 °F 57.9 °F 90% 29.91 in 9.0 mi NNW 4.6 mph - N/A   Clear
3:18 AM 60.1 °F 57.9 °F 93% 29.98 in 8.0 mi Calm Calm - N/A   Partly Cloudy
3:54 AM 61.0 °F 57.9 °F 90% 29.91 in 9.0 mi Calm Calm - N/A   Clear
4:08 AM 59.0 °F 57.0 °F 93% 29.98 in 6.0 mi WSW 3.5 mph - N/A   Scattered Clouds
4:16 AM 59.0 °F 57.0 °F 93% 29.97 in 5.0 mi Calm Calm - N/A   Mostly Cloudy
4:54 AM 61.0 °F 59.0 °F 93% 29.90 in 4.0 mi NNW 3.5 mph - N/A   Overcast
5:18 AM 60.1 °F 57.9 °F 93% 29.97 in 1.5 mi SW 3.5 mph - N/A   Overcast
5:21 AM 59.0 °F 57.9 °F 96% 29.97 in 0.8 mi Calm Calm - N/A   Overcast
5:28 AM 59.0 °F 57.9 °F 96% 29.97 in 0.5 mi Calm Calm - N/A Fog Fog
5:50 AM 60.8 °F 57.2 °F 88% 29.96 in 1.2 mi North 3.5 mph - N/A   Overcast
5:52 AM 60.8 °F 57.2 °F 88% 29.96 in 2.0 mi North 3.5 mph - N/A   Overcast
5:54 AM 60.1 °F 57.9 °F 93% 29.90 in 2.5 mi North 3.5 mph - N/A   Overcast
6:06 AM 60.1 °F 59.0 °F 96% 29.96 in 5.0 mi NNW 4.6 mph - N/A   Overcast
6:43 AM 60.1 °F 57.9 °F 93% 29.97 in 1.8 mi NW 3.5 mph - N/A   Overcast
6:49 AM 60.8 °F 57.2 °F 88% 29.97 in 0.8 mi Calm Calm - N/A   Overcast
6:54 AM 60.1 °F 57.9 °F 93% 29.91 in 0.8 mi Calm Calm - N/A   Overcast
7:07 AM 60.1 °F 57.9 °F 93% 29.97 in 1.2 mi Calm Calm - N/A   Overcast
7:14 AM 60.1 °F 57.9 °F 93% 29.97 in 1.8 mi NW 4.6 mph - N/A   Overcast
7:22 AM 60.1 °F 57.9 °F 93% 29.97 in 0.8 mi North 3.5 mph - N/A   Overcast
7:31 AM 60.1 °F 59.0 °F 96% 29.97 in 1.5 mi Calm Calm - N/A   Overcast
7:40 AM 61.0 °F 59.0 °F 93% 29.97 in 3.0 mi NNW 3.5 mph - N/A   Overcast
7:49 AM 60.8 °F 59.0 °F 94% 29.98 in 1.5 mi West 3.5 mph - N/A   Overcast
7:54 AM 61.0 °F 59.0 °F 93% 29.92 in 1.5 mi Calm Calm - N/A   Overcast
8:01 AM 61.0 °F 59.0 °F 93% 29.99 in 3.0 mi Calm Calm - N/A   Overcast
8:11 AM 61.0 °F 59.0 °F 93% 29.99 in 2.5 mi Calm Calm - N/A   Mostly Cloudy
8:38 AM 62.1 °F 59.0 °F 90% 29.99 in 2.5 mi Calm Calm - N/A   Mostly Cloudy
8:54 AM 62.1 °F 59.0 °F 90% 29.93 in 2.5 mi WNW 3.5 mph - N/A   Overcast
9:01 AM 62.1 °F 60.1 °F 93% 29.99 in 7.0 mi WNW 3.5 mph - N/A   Overcast
9:27 AM 66.0 °F 60.1 °F 81% 29.98 in 10.0 mi Calm Calm - N/A   Scattered Clouds
9:54 AM 69.1 °F 61.0 °F 75% 29.91 in 10.0 mi Calm Calm - N/A   Clear
10:54 AM 73.0 °F 62.1 °F 68% 29.90 in 10.0 mi SW 3.5 mph - N/A   Clear
11:54 AM 75.9 °F 55.9 °F 50% 29.88 in 10.0 mi Calm Calm - N/A   Clear
12:54 PM 77.0 °F 57.0 °F 50% 29.86 in 10.0 mi NNW 6.9 mph - N/A   Mostly Cloudy
1:44 PM 77.0 °F 59.0 °F 54% 29.90 in 10.0 mi NNW 6.9 mph - N/A Thunderstorm Mostly Cloudy
1:54 PM 75.0 °F 60.1 °F 60% 29.83 in 10.0 mi NNW 9.2 mph - N/A Thunderstorm Overcast
2:04 PM 71.1 °F 61.0 °F 70% 29.91 in 10.0 mi NW 15.0 mph - N/A Thunderstorm Thunderstorm
2:37 PM 69.1 °F 61.0 °F 75% 29.92 in 10.0 mi North 8.1 mph - 0.00 in   Mostly Cloudy
2:54 PM 69.1 °F 59.0 °F 70% 29.86 in 10.0 mi North 4.6 mph - 0.00 in Rain Light Rain
3:41 PM 66.9 °F 62.1 °F 84% 29.92 in 9.0 mi Calm Calm - 0.01 in Rain , Thunderstorm Light Rain
3:54 PM 66.9 °F 63.0 °F 87% 29.87 in 4.0 mi NW 5.8 mph - 0.03 in Rain Rain
4:02 PM 66.0 °F 63.0 °F 90% 29.93 in 1.8 mi WNW 5.8 mph - 0.02 in Rain Heavy Rain
4:05 PM 64.9 °F 62.1 °F 90% 29.93 in 0.8 mi Calm Calm - 0.06 in Rain Heavy Rain
4:17 PM 66.0 °F 62.1 °F 87% 29.92 in 1.5 mi North 8.1 mph - 0.17 in Rain Rain
4:21 PM 66.0 °F 62.1 °F 87% 29.91 in 3.0 mi North 9.2 mph - 0.18 in Rain Heavy Rain
4:54 PM 64.9 °F 62.1 °F 90% 29.83 in 4.0 mi Calm Calm - 0.25 in Rain Rain
5:04 PM 66.0 °F 62.1 °F 87% 29.87 in 2.5 mi Calm Calm - 0.02 in Rain Rain
5:11 PM 64.9 °F 63.0 °F 93% 29.86 in 4.0 mi SSE 3.5 mph - 0.04 in Rain Light Rain
5:38 PM 66.0 °F 63.0 °F 90% 29.87 in 10.0 mi WSW 3.5 mph - 0.05 in   Overcast
5:54 PM 69.1 °F 62.1 °F 78% 29.79 in 10.0 mi Calm Calm - 0.05 in   Overcast
6:05 PM 68.0 °F 62.1 °F 81% 29.85 in 10.0 mi Calm Calm - N/A   Mostly Cloudy
6:12 PM 68.0 °F 62.1 °F 81% 29.85 in 10.0 mi Calm Calm - N/A   Mostly Cloudy
6:54 PM 68.0 °F 61.0 °F 78% 29.80 in 10.0 mi Calm Calm - N/A   Mostly Cloudy
7:21 PM 66.9 °F 60.1 °F 79% 29.84 in 10.0 mi Calm Calm - N/A   Scattered Clouds
7:54 PM 66.0 °F 61.0 °F 84% 29.79 in 10.0 mi Calm Calm - N/A   Clear
8:54 PM 64.9 °F 62.1 °F 90% 29.80 in 10.0 mi Calm Calm - N/A   Clear
9:54 PM 64.0 °F 62.1 °F 93% 29.80 in 10.0 mi Calm Calm - N/A   Overcast
10:51 PM 64.4 °F 62.6 °F 94% 29.86 in 10.0 mi SSW 3.5 mph - N/A   Mostly Cloudy
10:54 PM 64.0 °F 61.0 °F 90% 29.79 in 9.0 mi SW 3.5 mph - N/A   Mostly Cloudy
11:28 PM 64.0 °F 62.1 °F 93% 29.87 in 8.0 mi South 5.8 mph - N/A   Overcast
11:54 PM 63.0 °F 61.0 °F 93% 29.78 in 9.0 mi SSE 4.6 mph - 0.00 in Rain Light Rain